Weather History for Altus AFB, OK

Change the Weather History Date:

Saturday, January 19, 2013

  Actual Average Record
Temperature  
Mean Temperature 44 °F -  
Max Temperature 61 °F 50 °F 75 °F (1999)
Min Temperature 27 °F 27 °F 13 °F (2008)
Degree Days  
Heating Degree Days 21    
Moisture  
Dew Point 32 °F    
Average Humidity 72    
Maximum Humidity 94    
Minimum Humidity 38    
Precipitation  
Precipitation 0.00 in - - ()
Sea Level Pressure  
Sea Level Pressure 30.16 in    
Wind  
Wind Speed 4 mph (SE)    
Max Wind Speed 7 mph    
Max Gust Speed -    
Visibility 10 miles    
Events      
Averages and records for this station are not official NWS values.
T = Trace of Precipitation, MM = Missing Value Source: NWS Daily Summary

Daily Weather History Graph

Daily Weather History Graph

Search for Another Location

Airport:

Trip Planner

Search our weather history database for the weather conditions in past years. The results will help you decide how hot, cold, wet, or windy it might be!

Date:

Astronomy

Jan. 19, 2013 Rise Set
Actual Time 7:42 AM CST 5:53 PM CST
Civil Twilight 7:15 AM CST 6:20 PM CST
Nautical Twilight 6:44 AM CST 6:51 PM CST
Astronomical Twilight 6:14 AM CST 7:21 PM CST
Moon 12:18 PM CST (1/19) 1:21 AM CST (1/19)
Length of Visible Light 11h 05m
Length of Day
10h 11m
First Quarter, 57% of the Moon is Illuminated
Jan 19
First Quarter
Jan 26
Full
Feb 3
Last Quarter
Feb 10
New
Feb 17
First Quarter

Hourly Weather History & Observations

Time (CST) Temp. Windchill Dew Point Humidity Pressure Visibility Wind Dir Wind Speed Gust Speed Precip Events Conditions
12:55 AM 33.8 °F 27.7 °F 29.8 °F 85% 30.16 in 10.0 mi SE 6.9 mph - N/A   Clear
1:55 AM 32.7 °F 27.3 °F 29.5 °F 88% 30.15 in 10.0 mi SE 5.8 mph - N/A   Clear
2:55 AM 32.9 °F 27.5 °F 29.3 °F 87% 30.15 in 10.0 mi SE 5.8 mph - N/A   Clear
3:55 AM 30.9 °F 25.2 °F 28.0 °F 89% 30.14 in 10.0 mi SE 5.8 mph - N/A   Clear
4:55 AM 30.4 °F 25.6 °F 28.0 °F 91% 30.13 in 10.0 mi ESE 4.6 mph - N/A   Clear
5:55 AM 29.5 °F 22.5 °F 27.5 °F 92% 30.13 in 10.0 mi SE 6.9 mph - N/A   Clear
6:55 AM 28.8 °F 25.0 °F 27.1 °F 94% 30.14 in 10.0 mi SSE 3.5 mph - N/A   Clear
7:55 AM 27.7 °F - 26.1 °F 94% 30.14 in 10.0 mi Calm Calm - N/A   Clear
8:55 AM 33.1 °F - 31.5 °F 94% 30.15 in 10.0 mi Calm Calm - N/A   Clear
9:55 AM 40.6 °F 37.5 °F 33.6 °F 76% 30.17 in 10.0 mi SSE 4.6 mph - N/A   Clear
10:55 AM 48.0 °F - 35.4 °F 62% 30.18 in 10.0 mi South 5.8 mph - N/A   Clear
11:55 AM 51.3 °F - 34.3 °F 52% 30.17 in 10.0 mi Calm Calm - N/A   Clear
12:55 PM 54.9 °F - 34.9 °F 47% 30.12 in 10.0 mi ESE 3.5 mph - N/A   Clear
1:55 PM 57.6 °F - 35.2 °F 43% 30.12 in 10.0 mi Calm Calm - N/A   Clear
2:55 PM 59.5 °F - 35.1 °F 40% 30.12 in 10.0 mi Variable 4.6 mph - N/A   Clear
3:55 PM 60.8 °F - 35.1 °F 38% 30.12 in 10.0 mi Calm Calm - N/A   Clear
4:55 PM 61.0 °F - 35.4 °F 38% 30.13 in 10.0 mi Calm Calm - N/A   Clear
5:55 PM 53.1 °F - 36.1 °F 53% 30.14 in 10.0 mi South 3.5 mph - N/A   Clear
6:55 PM 47.3 °F - 34.3 °F 61% 30.18 in 10.0 mi Calm Calm - N/A   Clear
7:55 PM 39.2 °F 37.0 °F 33.3 °F 79% 30.21 in 10.0 mi North 3.5 mph - N/A   Clear
8:55 PM 41.9 °F 39.0 °F 34.2 °F 74% 30.22 in 10.0 mi NNW 4.6 mph - N/A   Clear
9:55 PM 40.3 °F 35.5 °F 34.0 °F 78% 30.22 in 10.0 mi NNW 6.9 mph - N/A   Clear
10:55 PM 35.1 °F 29.3 °F 31.1 °F 85% 30.23 in 10.0 mi NNW 6.9 mph - N/A   Clear
11:55 PM 34.9 °F - 30.4 °F 84% 30.23 in 10.0 mi Calm Calm - N/A   Clear